Time,TemperatureF,DewpointF,PressureIn,WindDirection,WindDirectionDegrees,WindSpeedMPH,WindSpeedGustMPH,Humidity,HourlyPrecipIn,Conditions,Clouds,dailyrainin,SoftwareType,DateUTC
2013-04-13 09:08:00,36.5,27.7,28.35,SSW,212,0.0,2.2,70,0.00,,---,0.00,VWS V14.01,2013-04-13 16:08:00,
2013-04-13 09:14:00,36.5,27.7,28.35,SSW,193,0.0,0.0,70,0.00,,---,0.00,VWS V14.01,2013-04-13 16:14:00,
2013-04-13 09:19:00,38.8,29.9,28.35,SSW,199,3.6,3.6,70,0.00,,---,0.00,VWS V14.01,2013-04-13 16:19:00,
2013-04-13 09:25:00,40.1,30.4,28.35,SE,126,2.2,2.7,68,0.00,,---,0.00,VWS V14.01,2013-04-13 16:25:00,
2013-04-13 09:30:00,40.5,30.8,28.35,South,177,0.0,2.2,68,0.00,,---,0.00,VWS V14.01,2013-04-13 16:30:00,
2013-04-13 09:35:00,40.5,30.8,28.35,South,177,0.0,0.0,68,0.00,,---,0.00,VWS V14.01,2013-04-13 16:35:00,
2013-04-13 09:40:00,40.5,30.8,28.35,SSW,197,0.0,0.0,68,0.00,,---,0.00,VWS V14.01,2013-04-13 16:40:00,
2013-04-13 09:45:00,41.4,29.7,28.35,SSW,195,0.0,0.0,63,0.00,,---,0.00,VWS V14.01,2013-04-13 16:45:00,
2013-04-13 09:50:00,42.3,28.5,28.35,South,185,0.0,0.0,58,0.00,,---,0.00,VWS V14.01,2013-04-13 16:50:00,
2013-04-13 09:55:00,42.3,28.1,28.35,South,186,0.0,0.0,57,0.00,,---,0.00,VWS V14.01,2013-04-13 16:55:00,
2013-04-13 10:03:00,42.3,28.1,28.35,South,178,0.0,0.0,57,0.00,,---,0.00,VWS V14.01,2013-04-13 17:03:00,
2013-04-13 10:08:00,43.0,25.1,28.35,SSW,204,0.0,0.0,49,0.00,,---,0.00,VWS V14.01,2013-04-13 17:08:00,
2013-04-13 10:14:00,43.7,25.3,28.35,SW,222,0.0,0.0,48,0.00,,---,0.00,VWS V14.01,2013-04-13 17:14:00,
2013-04-13 10:19:00,44.6,24.0,28.35,SSW,199,0.0,0.0,44,0.00,,---,0.00,VWS V14.01,2013-04-13 17:19:00,
2013-04-13 10:25:00,44.6,24.0,28.38,SW,223,0.0,2.2,44,0.00,,---,0.00,VWS V14.01,2013-04-13 17:25:00,
2013-04-13 10:30:00,44.2,21.5,28.38,South,173,0.0,0.0,40,0.00,,---,0.00,VWS V14.01,2013-04-13 17:30:00,
2013-04-13 10:36:00,44.4,21.0,28.38,SSW,193,0.0,0.0,39,0.00,,---,0.00,VWS V14.01,2013-04-13 17:36:00,
2013-04-13 10:44:00,45.9,21.1,28.38,SSE,156,4.9,5.8,37,0.00,,---,0.00,VWS V14.01,2013-04-13 17:44:00,
2013-04-13 10:50:00,45.9,21.1,28.38,SSE,153,0.0,3.1,37,0.00,,---,0.00,VWS V14.01,2013-04-13 17:50:00,
2013-04-13 10:55:00,45.9,21.1,28.38,SSE,162,0.0,0.0,37,0.00,,---,0.00,VWS V14.01,2013-04-13 17:55:00,
2013-04-13 11:01:00,46.8,19.9,28.38,SSW,193,0.0,0.0,34,0.00,,---,0.00,VWS V14.01,2013-04-13 18:01:00,
2013-04-13 11:08:00,47.3,16.7,28.38,SSE,154,0.0,0.0,29,0.00,,---,0.00,VWS V14.01,2013-04-13 18:08:00,
2013-04-13 11:13:00,47.3,16.7,28.38,North,9,0.0,0.0,29,0.00,,---,0.00,VWS V14.01,2013-04-13 18:13:00,
2013-04-13 11:19:00,46.8,16.2,28.38,SW,219,0.0,0.0,29,0.00,,---,0.00,VWS V14.01,2013-04-13 18:19:00,
2013-04-13 11:24:00,46.6,14.4,28.38,ESE,120,0.0,0.0,27,0.00,,---,0.00,VWS V14.01,2013-04-13 18:24:00,
2013-04-13 11:28:00,46.2,14.9,28.38,South,189,0.0,0.0,28,0.00,,---,0.00,VWS V14.01,2013-04-13 18:28:00,
2013-04-13 11:30:00,46.2,14.9,28.38,SSW,192,0.0,0.0,28,0.00,,---,0.00,VWS V14.01,2013-04-13 18:30:00,
2013-04-13 11:33:00,46.2,14.9,28.38,SE,139,0.0,0.0,28,0.00,,---,0.00,VWS V14.01,2013-04-13 18:33:00,
2013-04-13 11:38:00,46.8,15.4,28.38,SSE,156,0.0,0.0,28,0.00,,---,0.00,VWS V14.01,2013-04-13 18:38:00,
2013-04-13 11:44:00,48.0,15.6,28.38,SSW,198,4.5,4.5,27,0.00,,---,0.00,VWS V14.01,2013-04-13 18:44:00,
2013-04-13 11:49:00,48.0,15.6,28.38,SSE,163,4.9,4.9,27,0.00,,---,0.00,VWS V14.01,2013-04-13 18:49:00,
2013-04-13 11:54:00,48.0,15.6,28.38,ESE,119,4.9,4.9,27,0.00,,---,0.00,VWS V14.01,2013-04-13 18:54:00,
2013-04-13 11:59:00,49.6,9.1,28.38,WSW,246,3.1,4.9,19,0.00,,---,0.00,VWS V14.01,2013-04-13 18:59:00,
2013-04-13 12:05:00,49.6,9.1,28.38,WSW,246,3.1,3.1,19,0.00,,---,0.00,VWS V14.01,2013-04-13 19:05:00,
2013-04-13 12:10:00,50.4,11.9,28.38,SW,235,0.0,3.1,21,0.00,,---,0.00,VWS V14.01,2013-04-13 19:10:00,
2013-04-13 12:15:00,50.4,11.9,28.38,South,174,6.3,6.3,21,0.00,,---,0.00,VWS V14.01,2013-04-13 19:15:00,
2013-04-13 12:21:00,50.4,11.9,28.38,South,174,6.3,6.3,21,0.00,,---,0.00,VWS V14.01,2013-04-13 19:21:00,
2013-04-13 12:26:00,49.1,8.6,28.35,South,181,3.1,3.1,19,0.00,,---,0.00,VWS V14.01,2013-04-13 19:26:00,
2013-04-13 12:31:00,49.1,8.6,28.35,South,181,3.1,3.1,19,0.00,,---,0.00,VWS V14.01,2013-04-13 19:31:00,
2013-04-13 12:37:00,48.4,8.0,28.35,ESE,105,0.0,0.0,19,0.00,,---,0.00,VWS V14.01,2013-04-13 19:37:00,
2013-04-13 12:42:00,48.4,8.0,28.35,ENE,62,0.0,0.0,19,0.00,,---,0.00,VWS V14.01,2013-04-13 19:42:00,
2013-04-13 12:47:00,48.4,8.0,28.35,SW,226,0.0,0.0,19,0.00,,---,0.00,VWS V14.01,2013-04-13 19:47:00,
2013-04-13 12:53:00,46.6,14.4,28.35,WSW,248,0.0,0.0,27,0.00,,---,0.00,VWS V14.01,2013-04-13 19:53:00,
2013-04-13 12:58:00,46.6,14.4,28.35,WSW,248,0.0,0.0,27,0.00,,---,0.00,VWS V14.01,2013-04-13 19:58:00,
2013-04-13 13:03:00,45.1,13.2,28.35,SW,226,0.0,2.7,27,0.00,,---,0.00,VWS V14.01,2013-04-13 20:03:00,
2013-04-13 13:08:00,42.4,14.0,28.38,SW,226,0.0,0.0,31,0.00,,---,0.00,VWS V14.01,2013-04-13 20:08:00,
2013-04-13 13:14:00,42.4,14.0,28.38,SW,215,0.0,0.0,31,0.00,,---,0.00,VWS V14.01,2013-04-13 20:14:00,
2013-04-13 13:20:00,39.7,18.0,28.38,North,10,0.0,0.0,41,0.00,,---,0.00,VWS V14.01,2013-04-13 20:20:00,
2013-04-13 13:25:00,39.7,18.0,28.38,North,10,0.0,0.0,41,0.00,,---,0.00,VWS V14.01,2013-04-13 20:25:00,
2013-04-13 13:30:00,39.2,19.1,28.38,WSW,242,0.0,0.0,44,0.00,,---,0.00,VWS V14.01,2013-04-13 20:30:00,
2013-04-13 13:35:00,39.4,19.8,28.38,South,191,0.0,0.0,45,0.00,,---,0.00,VWS V14.01,2013-04-13 20:35:00,
2013-04-13 13:42:00,41.2,22.0,28.38,SSW,192,0.0,0.0,46,0.00,,---,0.00,VWS V14.01,2013-04-13 20:42:00,
2013-04-13 13:47:00,41.7,22.5,28.38,South,172,0.0,0.0,46,0.00,,---,0.00,VWS V14.01,2013-04-13 20:47:00,
2013-04-13 13:53:00,43.5,21.4,28.38,South,172,0.0,0.0,41,0.00,,---,0.00,VWS V14.01,2013-04-13 20:53:00,
2013-04-13 13:58:00,44.1,21.9,28.38,SW,214,2.2,4.0,41,0.00,,---,0.00,VWS V14.01,2013-04-13 20:58:00,
2013-04-13 14:03:00,45.5,23.2,28.38,SSW,204,2.2,2.2,41,0.00,,---,0.00,VWS V14.01,2013-04-13 21:03:00,
2013-04-13 14:09:00,46.9,22.0,28.38,SW,234,0.0,2.2,37,0.00,,---,0.00,VWS V14.01,2013-04-13 21:09:00,
2013-04-13 14:14:00,46.9,22.0,28.38,South,171,3.6,3.6,37,0.00,,---,0.00,VWS V14.01,2013-04-13 21:14:00,
2013-04-13 14:19:00,45.7,20.3,28.38,South,171,3.6,3.6,36,0.00,,---,0.00,VWS V14.01,2013-04-13 21:19:00,
2013-04-13 14:25:00,45.7,21.5,28.38,South,190,4.0,4.0,38,0.00,,---,0.00,VWS V14.01,2013-04-13 21:25:00,
2013-04-13 14:30:00,45.9,21.7,28.38,SE,137,4.0,4.0,38,0.00,,---,0.00,VWS V14.01,2013-04-13 21:30:00,
2013-04-13 14:35:00,45.7,21.5,28.38,SSW,201,3.6,4.0,38,0.00,,---,0.00,VWS V14.01,2013-04-13 21:35:00,
2013-04-13 14:40:00,45.7,21.5,28.38,SSW,195,0.0,3.6,38,0.00,,---,0.00,VWS V14.01,2013-04-13 21:40:00,
2013-04-13 14:45:00,46.0,20.6,28.38,SSW,195,0.0,0.0,36,0.00,,---,0.00,VWS V14.01,2013-04-13 21:45:00,
2013-04-13 14:51:00,46.6,18.3,28.38,South,184,4.9,4.9,32,0.00,,---,0.00,VWS V14.01,2013-04-13 21:51:00,
2013-04-13 14:56:00,46.8,21.2,28.38,SW,225,2.7,2.7,36,0.00,,---,0.00,VWS V14.01,2013-04-13 21:56:00,
2013-04-13 15:02:00,46.9,17.1,28.38,SSW,193,3.1,6.3,30,0.00,,---,0.00,VWS V14.01,2013-04-13 22:02:00,
2013-04-13 15:07:00,46.9,17.1,28.38,SSE,164,4.9,4.9,30,0.00,,---,0.00,VWS V14.01,2013-04-13 22:07:00,
2013-04-13 15:12:00,47.5,18.4,28.38,SSW,212,2.7,2.7,31,0.00,,---,0.00,VWS V14.01,2013-04-13 22:12:00,
2013-04-13 15:17:00,49.3,17.6,28.38,West,261,2.7,3.1,28,0.00,,---,0.00,VWS V14.01,2013-04-13 22:17:00,
2013-04-13 15:23:00,49.3,17.6,28.38,South,178,5.4,5.8,28,0.00,,---,0.00,VWS V14.01,2013-04-13 22:23:00,
2013-04-13 15:28:00,48.9,16.4,28.38,South,184,0.0,3.6,27,0.00,,---,0.00,VWS V14.01,2013-04-13 22:28:00,
2013-04-13 15:33:00,49.3,16.7,28.38,SSE,151,3.6,5.4,27,0.00,,---,0.00,VWS V14.01,2013-04-13 22:33:00,
2013-04-13 15:39:00,48.4,16.0,28.38,South,170,2.7,3.6,27,0.00,,---,0.00,VWS V14.01,2013-04-13 22:39:00,
2013-04-13 15:44:00,48.4,16.0,28.38,SW,227,2.2,2.7,27,0.00,,---,0.00,VWS V14.01,2013-04-13 22:44:00,
2013-04-13 15:49:00,48.4,16.0,28.38,SW,234,3.1,3.6,27,0.00,,---,0.00,VWS V14.01,2013-04-13 22:49:00,
2013-04-13 15:55:00,47.7,17.0,28.38,West,280,0.0,3.1,29,0.00,,---,0.00,VWS V14.01,2013-04-13 22:55:00,
2013-04-13 16:00:00,47.3,10.4,28.38,SW,216,3.6,4.0,22,0.00,,---,0.00,VWS V14.01,2013-04-13 23:00:00,
2013-04-13 16:05:00,47.3,15.0,28.38,SW,229,0.0,3.6,27,0.00,,---,0.00,VWS V14.01,2013-04-13 23:05:00,
2013-04-13 16:10:00,48.0,13.0,28.38,WSW,240,0.0,8.1,24,0.00,,---,0.00,VWS V14.01,2013-04-13 23:10:00,
2013-04-13 16:15:00,48.0,13.0,28.38,SSE,152,2.2,3.1,24,0.00,,---,0.00,VWS V14.01,2013-04-13 23:15:00,
2013-04-13 16:20:00,48.9,15.6,28.38,NE,56,4.9,4.9,26,0.00,,---,0.00,VWS V14.01,2013-04-13 23:20:00,
2013-04-13 16:26:00,48.6,10.4,28.35,SSW,206,2.7,2.7,21,0.00,,---,0.00,VWS V14.01,2013-04-13 23:26:00,
2013-04-13 16:31:00,48.0,13.0,28.35,SW,230,2.7,2.7,24,0.00,,---,0.00,VWS V14.01,2013-04-13 23:31:00,
2013-04-13 16:36:00,48.0,13.0,28.35,SSW,204,0.0,0.0,24,0.00,,---,0.00,VWS V14.01,2013-04-13 23:36:00,
2013-04-13 16:42:00,48.0,13.0,28.35,South,170,3.6,3.6,24,0.00,,---,0.00,VWS V14.01,2013-04-13 23:42:00,
2013-04-13 16:47:00,45.3,13.3,28.35,NNW,336,0.0,0.0,27,0.00,,---,0.00,VWS V14.01,2013-04-13 23:47:00,
2013-04-13 16:52:00,45.0,13.0,28.35,WSW,251,0.0,0.0,27,0.00,,---,0.00,VWS V14.01,2013-04-13 23:52:00,
2013-04-13 16:58:00,45.0,13.0,28.35,ENE,65,2.7,3.1,27,0.00,,---,0.00,VWS V14.01,2013-04-13 23:58:00,
2013-04-13 17:03:00,45.0,13.0,28.35,ESE,115,3.1,3.1,27,0.00,,---,0.00,VWS V14.01,2013-04-14 00:03:00,
2013-04-13 17:09:00,46.0,13.9,28.35,SE,132,0.0,2.7,27,0.00,,---,0.00,VWS V14.01,2013-04-14 00:09:00,
2013-04-13 17:14:00,45.7,13.6,28.38,SE,132,0.0,0.0,27,0.00,,---,0.00,VWS V14.01,2013-04-14 00:14:00,
2013-04-13 17:19:00,46.0,9.3,28.38,East,79,4.0,4.0,22,0.00,,---,0.00,VWS V14.01,2013-04-14 00:19:00,
2013-04-13 17:24:00,46.2,14.1,28.38,NE,50,4.0,4.0,27,0.00,,---,0.00,VWS V14.01,2013-04-14 00:24:00,
2013-04-13 17:30:00,46.2,14.1,28.38,NE,50,4.0,4.0,27,0.00,,---,0.00,VWS V14.01,2013-04-14 00:30:00,
2013-04-13 17:35:00,46.0,9.3,28.38,SW,217,3.1,4.0,22,0.00,,---,0.00,VWS V14.01,2013-04-14 00:35:00,
2013-04-13 17:40:00,45.9,9.2,28.38,East,96,0.0,7.2,22,0.00,,---,0.00,VWS V14.01,2013-04-14 00:40:00,
2013-04-13 17:47:00,44.4,10.8,28.38,East,99,2.7,2.7,25,0.00,,---,0.00,VWS V14.01,2013-04-14 00:47:00,
2013-04-13 17:52:00,44.4,10.8,28.38,SSW,195,4.0,4.0,25,0.00,,---,0.00,VWS V14.01,2013-04-14 00:52:00,
2013-04-13 17:57:00,44.4,10.8,28.38,SW,223,2.7,4.0,25,0.00,,---,0.00,VWS V14.01,2013-04-14 00:57:00,
2013-04-13 18:03:00,43.2,13.1,28.38,NW,321,2.2,5.8,29,0.00,,---,0.00,VWS V14.01,2013-04-14 01:03:00,
2013-04-13 18:08:00,43.2,13.1,28.38,NNW,335,0.0,3.1,29,0.00,,---,0.00,VWS V14.01,2013-04-14 01:08:00,
2013-04-13 18:14:00,43.0,12.9,28.38,SSW,202,2.7,3.1,29,0.00,,---,0.00,VWS V14.01,2013-04-14 01:14:00,
2013-04-13 18:19:00,43.0,12.9,28.38,WNW,288,2.7,2.7,29,0.00,,---,0.00,VWS V14.01,2013-04-14 01:19:00,
2013-04-13 18:24:00,42.4,12.4,28.38,South,177,0.0,2.7,29,0.00,,---,0.00,VWS V14.01,2013-04-14 01:24:00,
2013-04-13 18:29:00,43.0,12.9,28.38,SE,137,3.1,3.1,29,0.00,,---,0.00,VWS V14.01,2013-04-14 01:29:00,
2013-04-13 18:35:00,43.3,13.2,28.38,SSE,160,3.1,3.1,29,0.00,,---,0.00,VWS V14.01,2013-04-14 01:35:00,
2013-04-13 18:40:00,43.3,13.2,28.38,ESE,107,5.8,5.8,29,0.00,,---,0.00,VWS V14.01,2013-04-14 01:40:00,
2013-04-13 18:46:00,43.0,12.1,28.38,SSW,212,3.6,3.6,28,0.00,,---,0.00,VWS V14.01,2013-04-14 01:46:00,
2013-04-13 18:52:00,42.1,12.1,28.38,South,183,0.0,2.7,29,0.00,,---,0.00,VWS V14.01,2013-04-14 01:52:00,
2013-04-13 18:57:00,42.1,12.1,28.38,South,181,4.9,4.9,29,0.00,,---,0.00,VWS V14.01,2013-04-14 01:57:00,
2013-04-13 19:03:00,41.0,12.0,28.38,SW,226,2.7,3.1,30,0.00,,---,0.00,VWS V14.01,2013-04-14 02:03:00,
2013-04-13 19:08:00,40.8,12.5,28.38,WSW,247,2.2,2.2,31,0.00,,---,0.00,VWS V14.01,2013-04-14 02:08:00,
2013-04-13 19:13:00,40.6,13.8,28.38,WSW,246,3.1,3.1,33,0.00,,---,0.00,VWS V14.01,2013-04-14 02:13:00,
2013-04-13 19:19:00,40.6,13.8,28.38,SSW,192,2.7,3.1,33,0.00,,---,0.00,VWS V14.01,2013-04-14 02:19:00,
2013-04-13 19:24:00,40.6,13.8,28.38,SW,222,0.0,0.0,33,0.00,,---,0.00,VWS V14.01,2013-04-14 02:24:00,
2013-04-13 19:30:00,40.3,14.8,28.38,South,185,0.0,0.0,35,0.00,,---,0.00,VWS V14.01,2013-04-14 02:30:00,
2013-04-13 19:35:00,39.7,15.6,28.38,South,184,2.7,2.7,37,0.00,,---,0.00,VWS V14.01,2013-04-14 02:35:00,
2013-04-13 19:40:00,39.7,16.2,28.38,SSW,202,0.0,2.7,38,0.00,,---,0.00,VWS V14.01,2013-04-14 02:40:00,
2013-04-13 19:45:00,39.4,15.9,28.38,SSW,209,0.0,0.0,38,0.00,,---,0.00,VWS V14.01,2013-04-14 02:45:00,
2013-04-13 19:50:00,39.2,16.3,28.38,South,183,2.7,2.7,39,0.00,,---,0.00,VWS V14.01,2013-04-14 02:50:00,
2013-04-13 19:55:00,38.8,16.0,28.38,SE,134,2.7,2.7,39,0.00,,---,0.00,VWS V14.01,2013-04-14 02:55:00,
2013-04-13 20:01:00,38.7,16.4,28.38,South,187,0.0,0.0,40,0.00,,---,0.00,VWS V14.01,2013-04-14 03:01:00,
2013-04-13 20:06:00,38.7,16.4,28.38,South,187,0.0,0.0,40,0.00,,---,0.00,VWS V14.01,2013-04-14 03:06:00,
2013-04-13 20:11:00,38.7,16.4,28.38,South,177,3.1,3.1,40,0.00,,---,0.00,VWS V14.01,2013-04-14 03:11:00,
2013-04-13 20:16:00,38.7,16.4,28.38,SSW,199,2.7,3.1,40,0.00,,---,0.00,VWS V14.01,2013-04-14 03:16:00,
2013-04-13 20:22:00,37.8,16.2,28.38,SSW,200,3.6,3.6,41,0.00,,---,0.00,VWS V14.01,2013-04-14 03:22:00,
2013-04-13 20:27:00,37.6,16.6,28.38,SW,232,3.6,3.6,42,0.00,,---,0.00,VWS V14.01,2013-04-14 03:27:00,
2013-04-13 20:33:00,37.8,16.8,28.38,South,180,6.3,6.3,42,0.00,,---,0.00,VWS V14.01,2013-04-14 03:33:00,
2013-04-13 20:38:00,37.8,16.8,28.38,SSW,196,0.0,0.0,42,0.00,,---,0.00,VWS V14.01,2013-04-14 03:38:00,
2013-04-13 20:43:00,37.8,16.8,28.38,SSW,196,0.0,0.0,42,0.00,,---,0.00,VWS V14.01,2013-04-14 03:43:00,
2013-04-13 20:48:00,37.6,16.6,28.38,SSE,150,0.0,0.0,42,0.00,,---,0.00,VWS V14.01,2013-04-14 03:48:00,
2013-04-13 20:54:00,37.6,17.1,28.38,South,190,2.7,2.7,43,0.00,,---,0.00,VWS V14.01,2013-04-14 03:54:00,
2013-04-13 20:59:00,37.6,17.7,28.38,SSE,157,3.1,3.1,44,0.00,,---,0.00,VWS V14.01,2013-04-14 03:59:00,
2013-04-13 21:00:00,37.6,17.7,28.38,SSW,199,0.0,3.1,44,0.00,,---,0.00,VWS V14.01,2013-04-14 04:00:00,
2013-04-13 21:01:00,37.6,17.7,28.38,SSW,199,0.0,0.0,44,0.00,,---,0.00,VWS V14.01,2013-04-14 04:01:00,
2013-04-13 21:02:00,37.6,17.7,28.38,SSW,199,0.0,0.0,44,0.00,,---,0.00,VWS V14.01,2013-04-14 04:02:00,
2013-04-13 21:06:00,37.6,17.7,28.38,SSW,199,0.0,0.0,44,0.00,,---,0.00,VWS V14.01,2013-04-14 04:06:00,
2013-04-13 21:11:00,37.4,17.5,28.38,SSW,200,3.1,3.1,44,0.00,,---,0.00,VWS V14.01,2013-04-14 04:11:00,
2013-04-13 21:16:00,37.4,17.5,28.38,SSW,200,0.0,0.0,44,0.00,,---,0.00,VWS V14.01,2013-04-14 04:16:00,
2013-04-13 21:22:00,36.7,17.9,28.38,SW,222,4.0,4.0,46,0.00,,---,0.00,VWS V14.01,2013-04-14 04:22:00,
2013-04-13 21:27:00,36.7,17.9,28.38,SSW,196,2.7,4.0,46,0.00,,---,0.00,VWS V14.01,2013-04-14 04:27:00,
2013-04-13 21:33:00,36.3,19.0,28.38,SSW,197,3.1,3.1,49,0.00,,---,0.00,VWS V14.01,2013-04-14 04:33:00,
2013-04-13 21:38:00,36.5,19.6,28.38,SSW,208,2.2,2.2,50,0.00,,---,0.00,VWS V14.01,2013-04-14 04:38:00,
2013-04-13 21:43:00,36.5,19.6,28.38,SSW,209,3.1,3.1,50,0.00,,---,0.00,VWS V14.01,2013-04-14 04:43:00,
2013-04-13 21:48:00,36.3,19.5,28.38,SSW,201,4.0,4.0,50,0.00,,---,0.00,VWS V14.01,2013-04-14 04:48:00,
2013-04-13 21:54:00,36.5,20.1,28.38,SSW,208,3.6,3.6,51,0.00,,---,0.00,VWS V14.01,2013-04-14 04:54:00,
2013-04-13 21:59:00,36.5,20.1,28.38,SSW,206,2.7,3.6,51,0.00,,---,0.00,VWS V14.01,2013-04-14 04:59:00,
2013-04-13 22:05:00,36.7,19.8,28.38,SSW,193,0.0,2.7,50,0.00,,---,0.00,VWS V14.01,2013-04-14 05:05:00,
2013-04-13 22:10:00,36.7,19.8,28.38,SSW,192,0.0,0.0,50,0.00,,---,0.00,VWS V14.01,2013-04-14 05:10:00,
2013-04-13 22:15:00,36.7,19.8,28.38,SSW,194,0.0,0.0,50,0.00,,---,0.00,VWS V14.01,2013-04-14 05:15:00,
2013-04-13 22:20:00,36.7,20.3,28.38,SSW,198,0.0,0.0,51,0.00,,---,0.00,VWS V14.01,2013-04-14 05:20:00,
2013-04-13 22:27:00,36.7,20.3,28.38,SSW,208,4.0,4.0,51,0.00,,---,0.00,VWS V14.01,2013-04-14 05:27:00,
2013-04-13 22:32:00,36.7,20.3,28.38,SSW,199,4.9,4.9,51,0.00,,---,0.00,VWS V14.01,2013-04-14 05:32:00,
2013-04-13 22:37:00,36.7,20.3,28.38,South,171,5.4,5.4,51,0.00,,---,0.00,VWS V14.01,2013-04-14 05:37:00,
2013-04-13 22:43:00,36.7,20.3,28.38,SW,218,3.6,4.9,51,0.00,,---,0.00,VWS V14.01,2013-04-14 05:43:00,
2013-04-13 22:48:00,36.7,20.7,28.38,SSW,197,4.9,4.9,52,0.00,,---,0.00,VWS V14.01,2013-04-14 05:48:00,
2013-04-13 22:53:00,36.7,20.7,28.38,South,186,2.7,4.0,52,0.00,,---,0.00,VWS V14.01,2013-04-14 05:53:00,
2013-04-13 22:59:00,36.7,20.7,28.38,SSW,199,4.0,4.0,52,0.00,,---,0.00,VWS V14.01,2013-04-14 05:59:00,
2013-04-13 23:04:00,36.5,20.6,28.38,SSW,192,3.6,3.6,52,0.00,,---,0.00,VWS V14.01,2013-04-14 06:04:00,
2013-04-13 23:09:00,36.5,20.6,28.38,SSW,212,4.0,5.4,52,0.00,,---,0.00,VWS V14.01,2013-04-14 06:09:00,
2013-04-13 23:15:00,36.5,20.6,28.38,SSW,211,3.6,6.3,52,0.00,,---,0.00,VWS V14.01,2013-04-14 06:15:00,
2013-04-13 23:20:00,36.1,20.7,28.38,SSW,199,5.4,5.4,53,0.00,,---,0.00,VWS V14.01,2013-04-14 06:20:00,
2013-04-13 23:25:00,35.8,20.8,28.35,SSW,198,6.3,6.3,54,0.00,,---,0.00,VWS V14.01,2013-04-14 06:25:00,
2013-04-13 23:30:00,35.8,21.2,28.35,SSW,208,5.8,6.3,55,0.00,,---,0.00,VWS V14.01,2013-04-14 06:30:00,
2013-04-13 23:37:00,35.8,21.2,28.35,SSW,204,5.4,5.4,55,0.00,,---,0.00,VWS V14.01,2013-04-14 06:37:00,
2013-04-13 23:42:00,35.8,21.2,28.38,South,180,5.4,5.4,55,0.00,,---,0.00,VWS V14.01,2013-04-14 06:42:00,
2013-04-13 23:49:00,36.0,22.2,28.38,South,187,5.4,5.4,57,0.00,,---,0.00,VWS V14.01,2013-04-14 06:49:00,
2013-04-13 23:54:00,36.1,22.4,28.38,SSW,196,5.4,6.3,57,0.00,,---,0.00,VWS V14.01,2013-04-14 06:54:00,
2013-04-13 23:59:00,36.1,22.4,28.38,SSW,204,4.0,4.9,57,0.00,,---,0.00,VWS V14.01,2013-04-14 06:59:00,